UAE9827 VTBS-OMDW

Flight info

Callsign UAE9827
Flight time N/A
Altitude 34000
Route PASTO1E PASTO L301 URKOK/N0484F360 L301 BUSBO L505 EXOLU M638 KARKU L301 RASKI/N0479F380 L301 RAGMA N571 VUSET A454 PASOV M564 VAXAS/N0405F240 M564 UMAMI
Aircraft B77L/H-SDE1E2E3FGHIJ2J3J4J5M1RWXY/LB1D1

Departure

Time 2026-04-30 13:16
Airport Suvarnabhumi Airport (VTBS)

Arrival

Time N/A
Airport Al Maktoum International Airport (OMDW)
Time Latitude Longitude Altitude Speed Heading
2026-04-30 12:31 13.70224 100.74669 22 ft 0 kts 104°
2026-04-30 13:06 13.70230 100.74643 21 ft 2 kts 104°
2026-04-30 13:06 13.70234 100.74628 22 ft 2 kts 104°
2026-04-30 13:06 13.70239 100.74613 22 ft 2 kts 121°
2026-04-30 13:06 13.70248 100.74602 22 ft 2 kts 139°
2026-04-30 13:07 13.70260 100.74593 22 ft 2 kts 155°
2026-04-30 13:07 13.70274 100.74588 22 ft 2 kts 172°
2026-04-30 13:07 13.70289 100.74587 22 ft 2 kts 189°
2026-04-30 13:07 13.70304 100.74591 22 ft 2 kts 198°
2026-04-30 13:08 13.70316 100.74595 21 ft 0 kts 196°
2026-04-30 13:08 13.70318 100.74596 21 ft 0 kts 195°
2026-04-30 13:10 13.70317 100.74596 21 ft 0 kts 195°
2026-04-30 13:10 13.70311 100.74593 21 ft 1 kts 195°
2026-04-30 13:11 13.70284 100.74586 22 ft 6 kts 196°
2026-04-30 13:11 13.70223 100.74569 22 ft 11 kts 194°
2026-04-30 13:11 13.70142 100.74548 22 ft 12 kts 194°
2026-04-30 13:11 13.70048 100.74522 21 ft 15 kts 195°
2026-04-30 13:12 13.69954 100.74499 17 ft 11 kts 193°
2026-04-30 13:12 13.69898 100.74481 16 ft 8 kts 211°
2026-04-30 13:12 13.69880 100.74423 17 ft 10 kts 282°
2026-04-30 13:13 13.69920 100.74265 23 ft 13 kts 285°
2026-04-30 13:13 13.69948 100.74159 23 ft 15 kts 285°
2026-04-30 13:13 13.69998 100.73965 21 ft 11 kts 284°
2026-04-30 13:14 13.70012 100.73891 21 ft 10 kts 266°
2026-04-30 13:14 13.69975 100.73837 21 ft 9 kts 211°
2026-04-30 13:14 13.69951 100.73827 21 ft 3 kts 194°
2026-04-30 13:15 13.69879 100.73808 21 ft 26 kts 194°
2026-04-30 13:15 13.68555 100.73462 22 ft 164 kts 194°
2026-04-30 13:15 13.67301 100.73127 318 ft 195 kts 195°
2026-04-30 13:16 13.66001 100.72785 1159 ft 190 kts 193°
2026-04-30 13:16 13.64684 100.72472 1670 ft 200 kts 192°
2026-04-30 13:16 13.63256 100.72137 2011 ft 220 kts 192°
2026-04-30 13:17 13.60004 100.71377 2829 ft 259 kts 191°
2026-04-30 13:17 13.58214 100.70956 3556 ft 265 kts 191°
2026-04-30 13:17 13.55282 100.69998 4786 ft 275 kts 213°
2026-04-30 13:18 13.53658 100.67983 5710 ft 285 kts 248°
2026-04-30 13:18 13.53773 100.63939 7162 ft 291 kts 285°
2026-04-30 13:18 13.54304 100.61944 7931 ft 292 kts 285°
2026-04-30 13:19 13.54946 100.59978 8574 ft 295 kts 299°
2026-04-30 13:19 13.56265 100.58379 9182 ft 298 kts 324°
2026-04-30 13:19 13.58134 100.57482 9733 ft 300 kts 349°
2026-04-30 13:19 13.60229 100.57294 10282 ft 306 kts
2026-04-30 13:20 13.62435 100.57327 10605 ft 323 kts
2026-04-30 13:20 13.64766 100.57399 10839 ft 343 kts
2026-04-30 13:20 13.67211 100.57470 11070 ft 362 kts
2026-04-30 13:20 13.69805 100.57541 11384 ft 377 kts
2026-04-30 13:21 13.72451 100.57612 12064 ft 381 kts
2026-04-30 13:21 13.75114 100.57618 12799 ft 383 kts 356°
2026-04-30 13:21 13.77751 100.57168 13475 ft 388 kts 345°
2026-04-30 13:22 13.82650 100.54800 14861 ft 395 kts 328°
2026-04-30 13:22 13.85029 100.53291 15526 ft 401 kts 328°
2026-04-30 13:22 13.89726 100.50140 16870 ft 408 kts 320°
2026-04-30 13:23 13.91748 100.48080 17511 ft 411 kts 309°
2026-04-30 13:23 13.94560 100.42927 18718 ft 418 kts 288°
2026-04-30 13:24 13.95679 100.37054 19926 ft 424 kts 278°
2026-04-30 13:24 13.96536 100.31026 21080 ft 431 kts 277°